Trenton, NJ

4:27 PM EST on December 09, 2019 (GMT -0500)
Trenton Mercer

Weather History for KTTN - October, 2019

Change the Weather History Date:

Tuesday, October 8, 2019

  Actual Average Record
Temperature  
Mean Temperature 60 °F 57 °F  
Max Temperature 64 °F 68 °F 90 °F (2007)
Min Temperature 57 °F 47 °F 32 °F (1999)
Degree Days  
Heating Degree Days 4 8  
Month to date heating degree days 36 57  
Since 1 July heating degree days 54 122  
Cooling Degree Days 0 0  
Month to date cooling degree days 26 7  
Year to date cooling degree days 1163 962  
Growing Degree Days 10 (Base 50)    
Moisture  
Dew Point 51 °F    
Average Humidity 77    
Maximum Humidity 97    
Minimum Humidity 52    
Precipitation  
Precipitation 0.05 in 0.15 in 4.80 in (2005)
Month to date precipitation 0.62 1.22  
Year to date precipitation 39.28 36.47  
Sea Level Pressure  
Sea Level Pressure 30.19 in    
Wind  
Wind Speed 6 mph ()    
Max Wind Speed 17 mph    
Max Gust Speed 22 mph    
Visibility 9.8 miles    
Events Rain    
T = Trace of Precipitation, MM = Missing Value Source: Averaged Metar Reports

Daily Weather History Graph

Daily Weather History Graph

Search for Another Location

Airport or City:

Astronomy

Oct. 08, 2019 Rise Set
Actual Time 7:02 AM EDT 6:30 PM EDT
Civil Twilight 6:35 AM EDT 6:57 PM EDT
Nautical Twilight 6:03 AM EDT 7:29 PM EDT
Astronomical Twilight 5:32 AM EDT 8:00 PM EDT
Moon 4:28 PM EDT (10/8) 1:48 AM EDT (10/8)
Length of Visible Light 12h 22m
Length of Day
11h 28m
Waxing Gibbous, 77% of the Moon is Illuminated
Oct 8
Waxing Gibbous
Oct 13
Full
Oct 21
Last Quarter
Oct 27
New
Nov 4
First Quarter

Hourly Weather History & Observations

Time (EDT) Temp. Dew Point Humidity Pressure Visibility Wind Dir Wind Speed Gust Speed Precip Events Conditions
12:49 AM 59.0 °F 57.2 °F 94% 30.19 in 10.0 mi North 4.6 mph - 0.00 in   Overcast
12:53 AM 59.0 °F 57.0 °F 93% 30.17 in 10.0 mi North 4.6 mph - 0.00 in   Overcast
1:53 AM 57.9 °F 57.0 °F 97% 30.17 in 3.0 mi North 5.8 mph - 0.04 in Rain Rain
2:53 AM 57.9 °F 57.0 °F 97% 30.17 in 10.0 mi North 4.6 mph - 0.01 in Rain Light Rain
3:27 AM 57.9 °F 57.0 °F 97% 30.18 in 10.0 mi North 4.6 mph - 0.00 in Rain Light Rain
3:53 AM 57.9 °F 57.0 °F 97% 30.16 in 10.0 mi North 5.8 mph - 0.00 in   Overcast
4:02 AM 57.9 °F 57.0 °F 97% 30.18 in 10.0 mi North 8.1 mph - N/A   Overcast
4:27 AM 57.0 °F 55.0 °F 93% 30.19 in 10.0 mi North 8.1 mph - N/A   Overcast
4:53 AM 57.0 °F 54.0 °F 89% 30.17 in 10.0 mi North 8.1 mph - N/A   Overcast
5:53 AM 57.0 °F 53.1 °F 87% 30.19 in 10.0 mi NNE 6.9 mph - N/A   Overcast
6:06 AM 57.0 °F 54.0 °F 89% 30.22 in 10.0 mi North 6.9 mph - N/A   Overcast
6:53 AM 57.0 °F 54.0 °F 89% 30.21 in 10.0 mi NNE 6.9 mph - N/A   Overcast
7:53 AM 57.0 °F 54.0 °F 89% 30.21 in 10.0 mi NNE 5.8 mph - N/A   Overcast
8:53 AM 57.9 °F 54.0 °F 87% 30.22 in 10.0 mi North 5.8 mph - N/A   Overcast
9:53 AM 57.9 °F 52.0 °F 81% 30.23 in 10.0 mi NNE 10.4 mph - N/A   Overcast
10:53 AM 57.9 °F 52.0 °F 81% 30.23 in 10.0 mi NNE 8.1 mph - N/A   Overcast
11:53 AM 60.1 °F 50.0 °F 69% 30.22 in 10.0 mi NNE 10.4 mph - N/A   Mostly Cloudy
12:53 PM 60.1 °F 48.0 °F 64% 30.21 in 10.0 mi NE 11.5 mph 20.7 mph N/A   Mostly Cloudy
1:53 PM 62.1 °F 46.9 °F 58% 30.19 in 10.0 mi NNE 11.5 mph - N/A   Overcast
2:53 PM 62.1 °F 46.0 °F 56% 30.18 in 10.0 mi NE 9.2 mph 18.4 mph N/A   Scattered Clouds
3:53 PM 62.1 °F 45.0 °F 53% 30.17 in 10.0 mi NNE 11.5 mph - N/A   Clear
4:53 PM 63.0 °F 46.0 °F 54% 30.18 in 10.0 mi NNE 8.1 mph - N/A   Overcast
5:53 PM 60.1 °F 44.1 °F 55% 30.17 in 10.0 mi NNE 9.2 mph - N/A   Clear
6:53 PM 59.0 °F 44.1 °F 58% 30.17 in 10.0 mi NNE 6.9 mph - N/A   Clear
7:53 PM 59.0 °F 44.1 °F 58% 30.17 in 10.0 mi North 8.1 mph - N/A   Overcast
8:53 PM 59.0 °F 45.0 °F 60% 30.18 in 10.0 mi North 6.9 mph - N/A   Mostly Cloudy
9:53 PM 59.0 °F 46.9 °F 64% 30.19 in 10.0 mi NNE 10.4 mph - N/A   Overcast
10:53 PM 57.9 °F 48.0 °F 70% 30.20 in 10.0 mi NNE 10.4 mph - N/A   Overcast
11:53 PM 57.9 °F 48.0 °F 70% 30.19 in 10.0 mi NNE 10.4 mph - N/A   Overcast